Date String (YYYY-MM-DD hh:mm:ss) UTC,Instrument flags,absolute air pressure of the measurement (hPa),sample flow rate (lpm),inlet stack bypass flow (lpm),air temperature of the measurement (°C),ambient temperature measured by the external sensor (°C),aerosol sample conditioner tube jacket temperature (°C),OPC LED temperature (°C),internal box temperature (°C),relative humidity of the measurement (%),span deviation,mass concentration of particles derived from Lorenz-Mie calculation of OPC scattering (μg/m³),mass concentration of particles derived from Lorenz-Mie calculation of OPC scattering (μg/m³),mass concentration of particles derived from Lorenz-Mie calculation of OPC scattering (μg/m³)
DateTimeUTC,F1_M11,P_M11,Q1_M11,Q2_M11,T1_M11,T2_M11,T3_M11,T4_M11,T5_M11,U1_M11,ZSPAN_M11,X0_M11,X2_M11,X1_M11
2023-11-23 05:00:00,SystemResetWarning,0828.1,4.99,000.00,026.2,025.3,000.0,034.5,027.5,8.3,0000.0,0006.54,0001.28,0000.68
2023-11-23 05:01:00,SystemResetWarning,0828.2,5.01,000.00,026.2,025.3,000.0,034.5,027.5,8.3,0000.0,0005.85,0001.28,0000.67
2023-11-23 05:02:00,SystemResetWarning,0828.2,5.00,000.00,026.2,025.3,000.0,034.5,027.5,8.2,0000.0,0005.85,0001.28,0000.65
2023-11-23 05:03:00,SystemResetWarning,0828.2,5.01,000.00,026.2,025.3,000.0,034.5,027.5,8.2,0000.0,0006.59,0001.24,0000.64
2023-11-23 05:04:00,SystemResetWarning,0828.2,5.00,000.00,026.3,025.3,000.0,034.5,027.6,8.2,0000.0,0006.80,0001.20,0000.64
2023-11-23 05:05:00,SystemResetWarning,0828.2,4.99,000.00,026.3,025.3,000.0,034.5,027.6,8.3,0000.0,0006.53,0001.11,0000.63
2023-11-23 05:06:00,SystemResetWarning,0828.2,5.00,000.00,026.3,025.3,000.0,034.5,027.6,8.3,0000.0,0006.35,0001.04,0000.62
2023-11-23 05:07:00,SystemResetWarning,0828.2,5.00,000.00,026.3,025.3,000.0,034.5,027.6,8.3,0000.0,0006.45,0001.03,0000.61
2023-11-23 05:08:00,SystemResetWarning,0828.2,5.00,000.00,026.3,025.3,000.0,034.5,027.6,8.3,0000.0,0005.82,0001.09,0000.62
2023-11-23 05:09:00,SystemResetWarning,0828.2,5.00,000.00,026.3,025.3,000.0,034.5,027.5,8.3,0000.0,0005.06,0001.10,0000.62
2023-11-23 05:10:00,SystemResetWarning,0828.2,5.01,000.00,026.3,025.3,000.0,034.5,027.5,8.3,0000.0,0004.65,0001.09,0000.62
2023-11-23 05:11:00,SystemResetWarning,0828.2,5.01,000.00,026.3,025.3,000.0,034.5,027.5,8.3,0000.0,0003.65,0001.12,0000.62
2023-11-23 05:12:00,SystemResetWarning,0828.2,5.00,000.00,026.3,025.3,000.0,034.5,027.5,8.3,0000.0,0003.90,0001.15,0000.64
2023-11-23 05:13:00,SystemResetWarning,0828.2,5.00,000.00,026.3,025.3,000.0,034.5,027.5,8.4,0000.0,0004.20,0001.19,0000.66
2023-11-23 05:14:00,SystemResetWarning,0828.2,5.00,000.00,026.3,025.3,000.0,034.5,027.6,8.4,0000.0,0003.69,0001.22,0000.67
2023-11-23 05:15:00,SystemResetWarning,0828.2,4.99,000.00,026.3,025.3,000.0,034.5,027.6,8.4,0000.0,0003.40,0001.22,0000.68
2023-11-23 05:16:00,SystemResetWarning,0828.2,4.99,000.00,026.3,025.3,000.0,034.5,027.6,8.4,0000.0,0004.14,0001.29,0000.68
2023-11-23 05:17:00,SystemResetWarning,0828.2,5.00,000.00,026.3,025.3,000.0,034.6,027.5,8.4,0000.0,0004.47,0001.29,0000.69
2023-11-23 05:18:00,SystemResetWarning,0828.2,4.99,000.00,026.3,025.3,000.0,034.6,027.5,8.4,0000.0,0004.37,0001.29,0000.70
2023-11-23 05:19:00,SystemResetWarning,0828.2,5.00,000.00,026.3,025.3,000.0,034.6,027.6,8.4,0000.0,0004.66,0001.26,0000.70
2023-11-23 05:20:00,SystemResetWarning,0828.2,5.00,000.00,026.3,025.3,000.0,034.6,027.6,8.4,0000.0,0005.67,0001.35,0000.72
2023-11-23 05:21:00,SystemResetWarning,0828.2,5.00,000.00,026.3,025.3,000.0,034.6,027.6,8.4,0000.0,0007.35,0001.38,0000.72
2023-11-23 05:22:00,SystemResetWarning,0828.2,5.00,000.00,026.3,025.3,000.0,034.6,027.6,8.4,0000.0,0007.61,0001.38,0000.73
2023-11-23 05:23:00,SystemResetWarning,0828.1,5.01,000.00,026.3,025.3,000.0,034.6,027.6,8.4,0000.0,0007.76,0001.38,0000.74
2023-11-23 05:24:00,SystemResetWarning,0828.1,5.00,000.00,026.3,025.3,000.0,034.6,027.6,8.4,0000.0,0008.09,0001.37,0000.75
2023-11-23 05:25:00,SystemResetWarning,0828.1,5.01,000.00,026.3,025.3,000.0,034.6,027.6,8.4,0000.0,0008.12,0001.39,0000.75
2023-11-23 05:26:00,SystemResetWarning,0828.1,4.99,000.00,026.3,025.3,000.0,034.6,027.6,8.4,0000.0,0008.32,0001.47,0000.77
2023-11-23 05:27:00,SystemResetWarning,0828.1,4.99,000.00,026.3,025.3,000.0,034.6,027.6,8.4,0000.0,0008.09,0001.49,0000.78
2023-11-23 05:28:00,SystemResetWarning,0828.2,4.99,000.00,026.3,025.3,000.0,034.6,027.6,8.4,0000.0,0008.06,0001.54,0000.79
2023-11-23 05:29:00,SystemResetWarning,0828.1,5.00,000.00,026.3,025.4,000.0,034.6,027.6,8.4,0000.0,0008.14,0001.61,0000.80
2023-11-23 05:30:00,SystemResetWarning,0828.1,5.00,000.00,026.3,025.4,000.0,034.6,027.6,8.4,0000.0,0008.26,0001.66,0000.81
2023-11-23 05:31:00,SystemResetWarning,0828.1,5.01,000.00,026.3,025.3,000.0,034.6,027.6,8.4,0000.0,0008.73,0001.64,0000.82
2023-11-23 05:32:00,SystemResetWarning,0828.2,5.00,000.00,026.3,025.3,000.0,034.6,027.6,8.4,0000.0,0008.03,0001.67,0000.83
2023-11-23 05:33:00,SystemResetWarning,0828.2,5.00,000.00,026.3,025.3,000.0,034.6,027.6,8.4,0000.0,0007.67,0001.68,0000.84
2023-11-23 05:34:00,SystemResetWarning,0828.2,5.00,000.00,026.3,025.3,000.0,034.6,027.5,8.4,0000.0,0007.85,0001.72,0000.86
2023-11-23 05:35:00,SystemResetWarning,0828.2,5.00,000.00,026.3,025.3,000.0,034.6,027.5,8.4,0000.0,0007.68,0001.76,0000.86
2023-11-23 05:36:00,SystemResetWarning,0828.2,5.00,000.00,026.3,025.3,000.0,034.6,027.6,8.3,0000.0,0008.01,0001.77,0000.87
2023-11-23 05:37:00,SystemResetWarning,0828.2,4.99,000.00,026.3,025.3,000.0,034.6,027.6,8.3,0000.0,0007.98,0001.73,0000.88
2023-11-23 05:38:00,SystemResetWarning,0828.2,5.00,000.00,026.3,025.3,000.0,034.6,027.6,8.3,0000.0,0007.90,0001.69,0000.88
2023-11-23 05:39:00,SystemResetWarning,0828.2,5.00,000.00,026.3,025.4,000.0,034.6,027.6,8.3,0000.0,0007.92,0001.71,0000.88
2023-11-23 05:40:00,SystemResetWarning,0828.2,5.00,000.00,026.3,025.4,000.0,034.6,027.6,8.3,0000.0,0008.47,0001.66,0000.86
2023-11-23 05:41:00,SystemResetWarning,0828.2,5.00,000.00,026.3,025.4,000.0,034.6,027.6,8.3,0000.0,0008.51,0001.61,0000.86
2023-11-23 05:42:00,SystemResetWarning,0828.2,5.00,000.00,026.3,025.4,000.0,034.6,027.6,8.3,0000.0,0007.68,0001.57,0000.84
2023-11-23 05:43:00,SystemResetWarning,0828.2,5.00,000.00,026.3,025.4,000.0,034.6,027.6,8.3,0000.0,0007.44,0001.55,0000.84
2023-11-23 05:44:00,SystemResetWarning,0828.2,5.00,000.00,026.3,025.4,000.0,034.6,027.6,8.3,0000.0,0007.42,0001.54,0000.82
2023-11-23 05:45:00,SystemResetWarning,0828.2,5.00,000.00,026.3,025.4,000.0,034.6,027.6,8.3,0000.0,0006.70,0001.47,0000.78
2023-11-23 05:46:00,SystemResetWarning,0828.2,5.00,000.00,026.3,025.4,000.0,034.6,027.6,8.3,0000.0,0006.31,0001.43,0000.77
2023-11-23 05:47:00,SystemResetWarning,0828.2,4.99,000.00,026.3,025.4,000.0,034.6,027.6,8.3,0000.0,0005.82,0001.39,0000.74
2023-11-23 05:48:00,SystemResetWarning,0828.3,5.00,000.00,026.3,025.4,000.0,034.6,027.6,8.3,0000.0,0005.36,0001.35,0000.72
2023-11-23 05:49:00,SystemResetWarning,0828.3,5.01,000.00,026.3,025.4,000.0,034.6,027.6,8.3,0000.0,0005.41,0001.32,0000.70
2023-11-23 05:50:00,SystemResetWarning,0828.3,5.01,000.00,026.3,025.4,000.0,034.6,027.6,8.3,0000.0,0005.51,0001.29,0000.68
2023-11-23 05:51:00,SystemResetWarning,0828.3,5.00,000.00,026.3,025.3,000.0,034.6,027.6,8.3,0000.0,0005.77,0001.24,0000.66
2023-11-23 05:52:00,SystemResetWarning,0828.3,5.00,000.00,026.3,025.3,000.0,034.6,027.6,8.4,0000.0,0005.29,0001.26,0000.65
2023-11-23 05:53:00,SystemResetWarning,0828.3,4.99,000.00,026.3,025.3,000.0,034.6,027.6,8.4,0000.0,0005.87,0001.27,0000.65
2023-11-23 05:54:00,SystemResetWarning,0828.3,4.99,000.00,026.3,025.3,000.0,034.6,027.6,8.4,0000.0,0006.19,0001.25,0000.63
2023-11-23 05:55:00,SystemResetWarning,0828.3,4.99,000.00,026.3,025.3,000.0,034.6,027.6,8.4,0000.0,0006.79,0001.24,0000.63
2023-11-23 05:56:00,SystemResetWarning,0828.3,5.01,000.00,026.3,025.3,000.0,034.6,027.6,8.4,0000.0,0007.48,0001.27,0000.64
2023-11-23 05:57:00,SystemResetWarning,0828.4,5.01,000.00,026.3,025.3,000.0,034.6,027.6,8.4,0000.0,0007.45,0001.28,0000.66
2023-11-23 05:58:00,SystemResetWarning,0828.4,5.00,000.00,026.3,025.3,000.0,034.6,027.6,8.5,0000.0,0007.40,0001.33,0000.67
2023-11-23 05:59:00,SystemResetWarning,0828.4,5.00,000.00,026.3,025.3,000.0,034.6,027.6,8.5,0000.0,0007.50,0001.39,0000.68
